Погода в Хмельнике

Украина / Винницкая область     49°33′30″N   27°57′16″E
темп.,
°C
ветер,
м/с
пор.,
м/с
влажн.,
%
обл.,
%
осадки,
мм/ч
давл.,
гПа
погр.,
м
18 мая, ср
ср1800:00+6ссз4126299 0.0 1017317
03:00+3сз411730 0.0 1018260
06:00+2ссз512885 0.0 1019454
09:00+7ссз8117298 0.0 10201105
12:00+4ссз71296100 0.4 1022778
15:00+9с81272100 0.8 10221330
18:00+9ссз8127385 0.7 10231081
21:00+9ссз6127182 0.7 1025677
19 мая, чт
чт1900:00+5сз410883 0.0 1027189
03:00+4сз48925 0.0 1027119
06:00+4сз49935 0.0 1027169
09:00+11сз5868100 0.0 1028586
12:00+15сз67535 0.0 10271407
15:00+17сз674765 0.0 10251594
18:00+16сз5757100 0.0 10241397
21:00+11зсз457893 0.0 102558
20 мая, пт
пт2000:00+9зсз348167 0.0 102558
03:00+8з3481100 0.0 102557
06:00+7з3483100 0.0 102464
09:00+15з356068 0.0 1024353
12:00+20з565382 0.0 10221122
15:00+21з6850100 0.0 10201454
18:00+18з51063100 0.0 1018443
21:00+14зюз48815 0.0 1017117
21 мая, сб
сб2100:00+15з61577100 0.0 1015425
03:00+14з61592100 0.6 1013517
06:00+14зсз51293100 0.0 1012399
09:00+17зсз588793 0.0 1011623
12:00+17сз3685100 0.1 1010602
15:00+16зюз61495100 5.1 1010552
18:00+19з61283100 0.3 10071031
21:00+16зсз10169066 1.9 1008840
22 мая, вс
вс2200:00+12зсз7158861 0.0 1009741
03:00+9з513935 0.0 1009381
06:00+10з61389100 0.0 1007510
09:00+10зсз81385100 0.4 1006972
12:00+10зсз71391100 0.6 1007998
15:00+10сз71390100 1.1 1008985
18:00+10зсз61391100 0.4 1009797
21:00+9сз61195100 0.9 1009656